CHINASAT 16 (SJ-13)

Last updated on Wed Mar 11 2026 00:02:54 GMT+0000 (Coordinated Universal Time)

1 42662U 17018A 26069.02646142 -.00000350 00000+0 00000+0 0 9992 2 42662 0.0410 99.5762 0004923 163.6044 24.5244 1.00269059 32757
UTC large
Height (km)
Speed (km/s)
/
Latitude / Longitude
Inclination (degrees)
Orbital Period (minutes)
Azimuth
Elevation
Range (km)
Doppler Factor

Next 0 passes for location: London (51.5072 / 0.1276)

Sorry there are no passes over London.